Location: Harburg
(48.7667°N, 10.6667°E)
Time: 15:33:54
(UTC+00:00)

Spot 2 Rocket - Pass Details

Date: 18 September 2020
Orbit: 758 x 771 km, 98.6° (Epoch: 24 October)

Event Time Altitude Azimuth Distance (km) Brightness Sun altitude
Exits shadow 19:48:07 47° 67° (ENE) 1,007 3.8 -23.4°
Drops below altitude 10° 19:52:54 10° 356° (N) 2,300 6.4 -24.1°
Sets 19:55:17 0° 350° (N) 3,230 7.4 -24.4°
